Williston, ND

4:12 AM CDT on April 30, 2017 (GMT -0500)
Sloulin International

Weather History for KISN - September, 2011

Change the Weather History Date:

Sunday, September 25, 2011

  Actual Average Record
Temperature  
Mean Temperature 68 °F 52 °F  
Max Temperature 89 °F 67 °F 97 °F (2014)
Min Temperature 47 °F 38 °F 17 °F (1928)
Degree Days  
Heating Degree Days 0 13  
Month to date heating degree days 150 204  
Since 1 July heating degree days 159 275  
Cooling Degree Days 3 0  
Month to date cooling degree days 26 24  
Year to date cooling degree days 442 453  
Growing Degree Days 18 (Base 50)    
Moisture  
Dew Point 49 °F    
Average Humidity 58    
Maximum Humidity 100    
Minimum Humidity 16    
Precipitation  
Precipitation 0.00 in 0.04 in 1.39 in (1923)
Month to date precipitation 0.86 0.89  
Year to date precipitation 17.81 12.01  
Snow  
Snow 0.00 in - - ()
Month to date snowfall 0.0  
Snow Depth 0.00 in    
Sea Level Pressure  
Sea Level Pressure 29.76 in    
Wind  
Wind Speed 4 mph (SSE)    
Max Wind Speed 10 mph    
Max Gust Speed 14 mph    
Visibility 10 miles    
Events      
T = Trace of Precipitation, MM = Missing Value Source: NWS Daily Summary

Daily Weather History Graph

Daily Weather History Graph

Search for Another Location

Airport or City:

Trip Planner

Search our weather history database for the weather conditions in past years. The results will help you decide how hot, cold, wet, or windy it might be!

Date:

Astronomy

Sep. 25, 2011 Rise Set
Actual Time 7:45 AM CDT 7:46 PM CDT
Civil Twilight 7:14 AM CDT 8:17 PM CDT
Nautical Twilight 6:37 AM CDT 8:53 PM CDT
Astronomical Twilight 6:00 AM CDT 9:31 PM CDT
Moon 5:27 AM CDT (9/25) 6:32 PM CDT (9/25)
Length of Visible Light 13h 03m
Length of Day
12h 01m
Waning Crescent, 5% of the Moon is Illuminated
Sep 25
Waning Crescent
Sep 27
New
Oct 3
First Quarter
Oct 11
Full
Oct 19
Last Quarter

Hourly Weather History & Observations

Time (CDT) Temp. Heat Index Dew Point Humidity Pressure Visibility Wind Dir Wind Speed Gust Speed Precip Events Conditions
12:52 AM 53.1 °F - 50.0 °F 89% 29.83 in 10.0 mi Calm Calm - N/A   Clear
1:52 AM 54.0 °F - 51.1 °F 90% 29.81 in 10.0 mi Calm Calm - N/A   Clear
2:52 AM 53.1 °F - 50.0 °F 89% 29.80 in 10.0 mi Calm Calm - N/A   Clear
3:52 AM 52.0 °F - 50.0 °F 93% 29.79 in 10.0 mi Calm Calm - N/A   Clear
4:52 AM 50.0 °F - 48.0 °F 93% 29.80 in 10.0 mi Calm Calm - N/A   Clear
5:52 AM 48.9 °F - 46.9 °F 93% 29.80 in 10.0 mi Calm Calm - N/A   Clear
6:52 AM 48.9 °F - 48.0 °F 97% 29.80 in 10.0 mi SW 3.5 mph - N/A   Clear
7:52 AM 52.0 °F - 48.9 °F 89% 29.81 in 10.0 mi South 3.5 mph - N/A   Clear
8:52 AM 51.8 °F - 50.0 °F 94% 29.80 in 10.0 mi SSW 3.5 mph - N/A   Clear
9:52 AM 57.9 °F - 52.0 °F 81% 29.80 in 10.0 mi South 3.5 mph - N/A   Clear
10:52 AM 64.0 °F - 51.1 °F 63% 29.80 in 10.0 mi South 4.6 mph - N/A   Clear
11:52 AM 70.0 °F - 50.0 °F 49% 29.78 in 10.0 mi South 5.8 mph - N/A   Clear
12:52 PM 77.0 °F - 52.0 °F 42% 29.76 in 10.0 mi SSW 6.9 mph - N/A   Clear
1:52 PM 80.1 °F - 46.9 °F 31% 29.74 in 10.0 mi Calm Calm - N/A   Clear
2:52 PM 84.9 °F - 50.0 °F 30% 29.72 in 10.0 mi SSE 4.6 mph - N/A   Clear
3:52 PM 88.0 °F - 42.1 °F 20% 29.70 in 10.0 mi SSE 5.8 mph - N/A   Clear
4:52 PM 88.0 °F - 36.0 °F 16% 29.69 in 10.0 mi South 3.5 mph - N/A   Clear
5:52 PM 88.0 °F - 42.1 °F 20% 29.69 in 10.0 mi ESE 5.8 mph - N/A   Clear
6:52 PM 82.9 °F 81.9 °F 54.0 °F 37% 29.69 in 10.0 mi East 5.8 mph - N/A   Clear
7:52 PM 78.1 °F - 53.1 °F 42% 29.70 in 10.0 mi SE 8.1 mph - N/A   Clear
8:52 PM 75.0 °F - 52.0 °F 44% 29.70 in 10.0 mi SE 8.1 mph - N/A   Clear
9:52 PM 73.0 °F - 51.1 °F 46% 29.72 in 10.0 mi SE 6.9 mph - N/A   Clear
10:52 PM 71.1 °F - 50.0 °F 47% 29.71 in 10.0 mi South 4.6 mph - N/A   Clear
11:52 PM 70.0 °F - 48.9 °F 47% 29.72 in 10.0 mi SSE 8.1 mph - N/A   Clear